Simultaneous Nadir Overpasses (SNOs) Predictions

Prediction of SNOs between AQUA and NPP Satellite Orbit:

Table of predicted SNOs for the next 14.0 days since TLE Epoch: 1/3/2015
Index Date (AQUA) Time (AQUA) Lat,Lon (AQUA) SZA (AQUA ) Date (NPP) Time (NPP) Lat,Lon (NPP) SZA (NPP ) Distance(km) Time Diff (sec)
1 01/03/2015 09:15:40 53.20,-103.87 140.33 01/03/2015 09:14:44 53.20,-103.89 140.45 1.12 56
2 01/03/2015 10:02:24 -62.80, 69.61 47.70 01/03/2015 10:02:41 -62.79, 69.60 47.72 0.50 17
3 01/06/2015 01:30:37 58.45, 14.86 135.91 01/06/2015 01:30:02 58.46, 14.89 135.95 1.69 35
4 01/06/2015 02:17:59 -65.73,-171.93 50.49 01/06/2015 02:18:38 -65.74,-171.89 50.56 1.68 39
5 01/08/2015 17:46:17 61.12, 132.51 133.42 01/08/2015 17:46:05 61.12, 132.52 133.44 0.37 12
6 01/08/2015 18:34:08 -66.69, -55.07 51.59 01/08/2015 18:35:11 -66.68, -55.11 51.66 1.73 63
7 01/11/2015 09:15:14 -54.31, 76.71 41.04 01/11/2015 09:14:12 -54.31, 76.69 40.91 1.27 62
8 01/11/2015 10:01:45 64.36,-109.04 130.27 01/11/2015 10:01:56 64.36,-109.00 130.24 2.04 11
9 01/11/2015 10:41:28 -76.43,-172.95 81.43 01/11/2015 10:42:41 -76.00,-175.17 81.73 76.05 73
10 01/14/2015 01:30:20 -58.90,-164.82 45.20 01/14/2015 01:29:41 -58.90,-164.81 45.14 0.25 39
11 01/14/2015 02:17:51 65.42, 7.83 128.97 01/14/2015 02:18:27 65.41, 7.80 128.94 1.58 36
12 01/16/2015 17:45:41 -62.53, -46.38 48.78 01/16/2015 17:45:26 -62.53, -46.35 48.77 1.35 15
